DW3637 Weather Reports


Display with metric or nautical units.
time (UTC)temp
F
wind
direction
speed
MPH
gust
MPH
rain 1hr
in
rain 24hr
in
rain mn
in
humidity
%
barometer
mb
20260906212018 74 0.0 0.0 0.00 0.19 0.17 55 1014.0
20260906211018 75 0.0 1.0 0.00 0.19 0.17 54 1014.0
20260906210037 76 0.0 1.0 0.00 0.19 0.17 53 1014.1
20260906205018 74 0.0 2.0 0.00 0.19 0.17 53 1014.0
20260906204018 74 45 1.0 3.0 0.00 0.19 0.17 50 1014.0
20260906203017 74 45 1.0 8.0 0.00 0.19 0.17 49 1013.9
20260906202018 75 0.0 0.0 0.00 0.19 0.17 53 1013.8
20260906201017 74 45 1.0 6.0 0.00 0.19 0.17 56 1013.8
20260906200017 75 45 1.0 4.0 0.00 0.19 0.17 54 1013.8
20260906195057 75 0.0 2.0 0.00 0.19 0.17 56 1013.8
20260906194017 75 0.0 3.0 0.00 0.19 0.17 57 1013.8
20260906193018 74 0.0 2.0 0.00 0.19 0.17 59 1013.9
20260906192037 76 0.0 2.0 0.00 0.19 0.17 56 1013.9
20260906191037 75 0.0 3.0 0.00 0.19 0.17 58 1014.0
20260906190018 75 0.0 6.0 0.00 0.19 0.17 59 1014.1
20260906185018 74 0.0 1.0 0.00 0.19 0.17 60 1014.2
20260906184017 73 0.0 1.0 0.00 0.19 0.17 62 1014.2
20260906183018 72 0.0 1.0 0.00 0.19 0.17 64 1014.2
20260906182017 71 0.0 5.0 0.00 0.19 0.17 65 1014.4
20260906181019 71 0.0 4.0 0.00 0.19 0.17 66 1014.4
20260906180017 72 0.0 5.0 0.00 0.19 0.17 65 1014.3
20260906175018 72 0.0 1.0 0.00 0.19 0.17 67 1014.3
20260906174017 72 0.0 1.0 0.00 0.19 0.17 69 1014.4
20260906173017 70 0.0 1.0 0.00 0.19 0.17 72 1014.6
20260906172017 69 0.0 1.0 0.00 0.19 0.17 73 1014.7
20260906171017 68 0.0 1.0 0.00 0.19 0.17 74 1014.7
20260906170017 69 0.0 0.0 0.00 0.19 0.17 72 1014.8
20260906165018 70 0.0 0.0 0.00 0.19 0.17 72 1015.0
20260906164017 69 0.0 3.0 0.00 0.19 0.17 75 1015.0
20260906163018 68 0.0 1.0 0.00 0.19 0.17 76 1015.1
20260906162017 69 0.0 2.0 0.00 0.19 0.17 75 1015.1
20260906161018 68 0.0 1.0 0.00 0.19 0.17 78 1015.1
20260906155017 66 0.0 2.0 0.00 0.19 0.17 83 1015.3
20260906154016 65 0.0 0.0 0.00 0.19 0.17 85 1015.5
20260906153017 64 0.0 0.0 0.00 0.19 0.17 87 1015.5
20260906152021 64 0.0 1.0 0.00 0.19 0.17 87 1015.5
20260906151022 64 0.0 1.0 0.00 0.19 0.17 89 1015.5
20260906150019 63 0.0 1.0 0.00 0.19 0.17 90 1015.6
20260906145018 63 0.0 4.0 0.00 0.19 0.17 90 1015.6
20260906144018 62 68 1.0 4.0 0.00 0.19 0.17 93 1015.5
20260906143019 62 0.0 2.0 0.00 0.19 0.17 94 1015.5
20260906142019 62 0.0 3.0 0.00 0.19 0.17 94 1015.4
20260906141038 61 0.0 4.0 0.00 0.19 0.17 93 1015.3
20260906140137 62 0.0 2.0 0.01 0.19 0.17 94 1015.4
20260906135036 61 0.0 3.0 0.01 0.19 0.17 95 1015.2
20260906134036 61 0.0 2.0 0.01 0.19 0.17 95 1015.3
20260906133018 61 0.0 2.0 0.01 0.19 0.17 95 1015.2
20260906132021 61 0.0 3.0 0.01 0.19 0.17 95 1015.2
20260906131018 61 0.0 3.0 0.01 0.19 0.17 95 1015.2
20260906130036 61 0.0 3.0 0.00 0.18 0.16 95 1015.1
20260906125017 61 0.0 0.0 0.00 0.18 0.16 96 1015.1
20260906124017 60 0.0 1.0 0.01 0.18 0.16 96 1015.1
20260906123036 61 0.0 1.0 0.01 0.18 0.16 96 1015.1
20260906122017 61 0.0 1.0 0.02 0.18 0.16 96 1014.9
20260906121017 61 0.0 1.0 0.02 0.18 0.16 96 1014.8
20260906120020 61 0.0 0.0 0.02 0.18 0.16 96 1014.7
20260906115026 61 0.0 0.0 0.02 0.18 0.16 96 1014.7
20260906114017 61 0.0 0.0 0.01 0.17 0.15 96 1014.6
20260906113017 61 0.0 0.0 0.01 0.17 0.15 96 1014.5
20260906112032 61 0.0 0.0 0.00 0.16 0.14 96 1014.3
20260906111055 60 0.0 0.0 0.00 0.16 0.14 96 1014.2
20260906110022 60 0.0 0.0 0.00 0.16 0.14 96 1013.9
20260906105017 60 0.0 1.0 0.00 0.16 0.14 96 1013.8
20260906104034 60 0.0 1.0 0.00 0.16 0.14 96 1013.6
20260906103017 60 0.0 1.0 0.00 0.16 0.14 96 1013.4
20260906102018 60 0.0 0.0 0.00 0.16 0.14 96 1013.4
20260906101019 60 0.0 1.0 0.00 0.16 0.14 96 1013.4
20260906100017 60 0.0 0.0 0.00 0.16 0.14 96 1013.2
20260906095017 60 0.0 1.0 0.00 0.16 0.14 96 1013.2
20260906094017 60 0.0 0.0 0.00 0.16 0.14 96 1013.0
20260906093017 61 0.0 1.0 0.00 0.16 0.14 96 1013.0
20260906092017 61 0.0 0.0 0.00 0.16 0.14 96 1013.0
20260906091017 61 0.0 0.0 0.00 0.16 0.14 96 1012.9
20260906090022 61 0.0 1.0 0.00 0.16 0.14 96 1012.8
20260906085038 60 0.0 0.0 0.00 0.16 0.14 96 1012.8
20260906084019 60 0.0 0.0 0.00 0.16 0.14 95 1012.7
20260906083020 60 0.0 0.0 0.00 0.16 0.14 95 1012.9
20260906082017 61 0.0 0.0 0.00 0.16 0.14 96 1012.8
20260906081017 61 0.0 0.0 0.00 0.16 0.14 95 1012.7
20260906080017 61 0.0 0.0 0.00 0.16 0.14 95 1012.8
20260906075017 61 0.0 0.0 0.00 0.16 0.14 95 1012.8
20260906074037 61 0.0 0.0 0.01 0.16 0.14 95 1012.8
20260906073017 60 0.0 0.0 0.04 0.16 0.14 95 1012.8
20260906072016 60 0.0 0.0 0.06 0.16 0.14 95 1012.8
20260906071016 60 0.0 0.0 0.06 0.16 0.14 94 1012.8
20260906070016 60 0.0 0.0 0.07 0.16 0.14 94 1012.8
20260906065029 60 0.0 0.0 0.08 0.16 0.14 94 1012.9
20260906064052 61 0.0 0.0 0.09 0.15 0.13 94 1012.9
20260906063039 61 0.0 0.0 0.07 0.12 0.10 93 1013.0
20260906062016 61 0.0 0.0 0.07 0.10 0.08 93 1013.0
20260906061020 61 0.0 0.0 0.08 0.10 0.08 93 1013.1
20260906060039 61 0.0 0.0 0.07 0.09 0.07 93 1013.1
20260906055056 62 0.0 0.0 0.06 0.08 0.06 92 1013.1
20260906054037 62 0.0 0.0 0.04 0.06 0.04 91 1013.0
20260906053040 63 0.0 1.0 0.03 0.05 0.03 91 1013.0
20260906052042 63 0.0 0.0 0.01 0.03 0.01 91 1012.8
20260906051046 63 0.0 0.0 0.00 0.02 0.00 90 1012.7
20260906050016 63 0.0 0.0 0.00 0.02 0.00 91 1012.8
20260906045026 63 0.0 0.0 0.00 0.02 0.00 92 1012.8
20260906044018 63 0.0 0.0 0.00 0.02 0.00 91 1012.8
20260906043018 63 0.0 0.0 0.00 0.02 0.00 91 1012.7
20260906042020 63 0.0 0.0 0.00 0.02 0.00 91 1012.8
20260906041037 63 0.0 1.0 0.00 0.02 0.00 91 1013.0
20260906040023 63 0.0 1.0 0.00 0.02 0.02 91 1012.9
20260906035016 63 0.0 0.0 0.00 0.02 0.02 90 1012.7
20260906034017 63 0.0 0.0 0.00 0.02 0.02 90 1012.6
20260906033036 63 0.0 1.0 0.00 0.02 0.02 90 1012.4
20260906032016 63 0.0 0.0 0.00 0.02 0.02 89 1012.2
20260906031018 64 0.0 0.0 0.01 0.02 0.02 90 1012.2
20260906030019 64 0.0 1.0 0.02 0.02 0.02 89 1012.1
20260906025016 64 0.0 2.0 0.02 0.02 0.02 89 1012.2
20260906024023 64 0.0 0.0 0.02 0.02 0.02 89 1012.3
20260906023016 64 0.0 2.0 0.02 0.02 0.02 89 1012.3
20260906022016 65 0.0 2.0 0.02 0.02 0.02 88 1012.1
20260906021018 66 90 1.0 5.0 0.01 0.01 0.01 87 1012.1
20260906020020 66 0.0 3.0 0.00 0.00 0.00 87 1012.0
20260906015023 66 0.0 1.0 0.00 0.00 0.00 87 1011.8
20260906014016 66 0.0 2.0 0.00 0.00 0.00 87 1011.8
20260906013040 67 0.0 3.0 0.00 0.00 0.00 88 1011.8
20260906012023 67 0.0 5.0 0.00 0.00 0.00 88 1011.8
20260906011017 67 0.0 1.0 0.00 0.00 0.00 89 1011.6
20260906010016 67 0.0 0.0 0.00 0.00 0.00 90 1011.5
20260906005143 67 0.0 0.0 0.00 0.00 0.00 90 1011.4
20260906004022 68 0.0 0.0 0.00 0.00 0.00 90 1011.4
20260906003017 68 0.0 1.0 0.00 0.00 0.00 89 1011.3
20260906002016 68 0.0 0.0 0.00 0.00 0.00 90 1011.1
20260906001017 68 0.0 0.0 0.00 0.00 0.00 89 1010.9
20260906000022 69 0.0 0.0 0.00 0.00 0.00 88 1010.8
20260905235016 69 0.0 0.0 0.00 0.00 0.00 86 1010.6
20260905233018 70 0.0 0.0 0.00 0.00 0.00 81 1010.4
20260905232029 71 0.0 1.0 0.00 0.00 0.00 77 1010.3
20260905231058 72 0.0 1.0 0.00 0.00 0.00 75 1010.3
20260905230038 73 0.0 2.0 0.00 0.00 0.00 74 1010.2
20260905225036 73 0.0 1.0 0.00 0.00 0.00 73 1010.2
20260905224018 73 0.0 0.0 0.00 0.00 0.00 75 1010.2
20260905223018 72 0.0 1.0 0.00 0.00 0.00 75 1010.1
20260905222018 73 0.0 3.0 0.00 0.00 0.00 74 1010.1
20260905221018 74 0.0 3.0 0.00 0.00 0.00 72 1010.0
20260905220018 74 90 1.0 7.0 0.00 0.00 0.00 71 1009.8
20260905215039 75 45 1.0 5.0 0.00 0.00 0.00 67 1009.6
20260905214018 76 0.0 2.0 0.00 0.00 0.00 61 1009.5
20260905213017 77 0.0 1.0 0.00 0.00 0.00 59 1009.5